Springfield, IL

12:37 PM CDT on October 21, 2017 (GMT -0500)
Capital

Weather History for KSPI - February, 2014

Change the Weather History Date:

Friday, February 21, 2014

  Actual Average Record
Temperature  
Mean Temperature 39 °F 33 °F  
Max Temperature 47 °F 42 °F 69 °F (1930)
Min Temperature 31 °F 24 °F -6 °F (1963)
Degree Days  
Heating Degree Days 26 32  
Month to date heating degree days 963 734  
Since 1 July heating degree days 4659 4060  
Cooling Degree Days 0 0  
Month to date cooling degree days 0 0  
Year to date cooling degree days 0 0  
Moisture  
Dew Point 25 °F    
Average Humidity 60    
Maximum Humidity 75    
Minimum Humidity 45    
Precipitation  
Precipitation T in 0.07 in 1.12 in (1974)
Month to date precipitation 2.90 1.29  
Year to date precipitation 5.14 3.11  
Snow  
Snow 0.00 in 0.20 in 5.30 in (2013)
Month to date snowfall 15.1 4.3  
Since 1 July snowfall 41.4 16.9  
Snow Depth 0.00 in    
Sea Level Pressure  
Sea Level Pressure 29.81 in    
Wind  
Wind Speed 17 mph (WSW)    
Max Wind Speed 35 mph    
Max Gust Speed 41 mph    
Visibility 10 miles    
Events      
T = Trace of Precipitation, MM = Missing Value Source: NWS Daily Summary

Daily Weather History Graph

Daily Weather History Graph

Search for Another Location

Airport or City:

Trip Planner

Search our weather history database for the weather conditions in past years. The results will help you decide how hot, cold, wet, or windy it might be!

Date:

Astronomy

Feb. 21, 2014 Rise Set
Actual Time 6:43 AM CST 5:41 PM CST
Civil Twilight 6:15 AM CST 6:09 PM CST
Nautical Twilight 5:44 AM CST 6:40 PM CST
Astronomical Twilight 5:13 AM CST 7:12 PM CST
Moon No Moon Rise 10:08 AM CST
Length of Visible Light 11h 53m
Length of Day
10h 58m
Waning Gibbous, 60% of the Moon is Illuminated
Feb 21
Waning Gibbous
Feb 22
Last Quarter
Mar 1
New
Mar 8
First Quarter
Mar 16
Full

Hourly Weather History & Observations

Time (CST) Temp. Windchill Dew Point Humidity Pressure Visibility Wind Dir Wind Speed Gust Speed Precip Events Conditions
12:52 AM 36.0 °F 27.5 °F 28.0 °F 73% 29.60 in 10.0 mi WSW 12.7 mph 21.9 mph N/A   Partly Cloudy
1:52 AM 36.0 °F 25.6 °F 27.0 °F 70% 29.65 in 10.0 mi WSW 18.4 mph 27.6 mph N/A   Mostly Cloudy
2:52 AM 36.0 °F 23.9 °F 27.0 °F 70% 29.66 in 10.0 mi West 25.3 mph 32.2 mph 0.00 in   Overcast
3:52 AM 35.1 °F 23.8 °F 25.0 °F 67% 29.68 in 10.0 mi West 20.7 mph - 0.00 in   Overcast
4:52 AM 33.1 °F 20.1 °F 24.1 °F 70% 29.72 in 10.0 mi West 25.3 mph 38.0 mph 0.00 in   Overcast
5:52 AM 33.1 °F 20.1 °F 23.0 °F 66% 29.75 in 10.0 mi West 25.3 mph 34.5 mph 0.00 in   Overcast
6:52 AM 32.0 °F 20.5 °F 23.0 °F 69% 29.77 in 10.0 mi West 18.4 mph - N/A   Mostly Cloudy
7:52 AM 32.0 °F 18.1 °F 19.9 °F 61% 29.81 in 10.0 mi West 27.6 mph 38.0 mph N/A   Scattered Clouds
8:52 AM 32.0 °F 18.4 °F 19.9 °F 61% 29.84 in 10.0 mi West 26.5 mph 36.8 mph N/A   Clear
9:52 AM 34.0 °F 20.8 °F 19.9 °F 56% 29.86 in 10.0 mi West 27.6 mph 35.7 mph N/A   Clear
10:52 AM 36.0 °F 24.4 °F 19.0 °F 50% 29.88 in 10.0 mi West 23.0 mph 32.2 mph N/A   Clear
11:52 AM 39.0 °F 28.5 °F 21.9 °F 50% 29.87 in 10.0 mi West 23.0 mph 32.2 mph N/A   Clear
12:52 PM 42.1 °F 32.6 °F 23.0 °F 47% 29.85 in 10.0 mi WSW 23.0 mph - N/A   Clear
1:52 PM 45.0 °F 36.9 °F 24.1 °F 44% 29.86 in 10.0 mi WSW 20.7 mph 26.5 mph N/A   Clear
2:52 PM 46.9 °F - 26.1 °F 44% 29.85 in 10.0 mi WSW 16.1 mph 23.0 mph N/A   Clear
3:52 PM 46.9 °F - 26.1 °F 44% 29.85 in 10.0 mi WSW 11.5 mph - N/A   Clear
4:52 PM 46.0 °F 43.1 °F 26.1 °F 46% 29.85 in 10.0 mi SW 5.8 mph - N/A   Overcast
5:52 PM 43.0 °F - 28.0 °F 56% 29.85 in 10.0 mi Calm Calm - N/A   Overcast
6:52 PM 39.9 °F - 27.0 °F 60% 29.84 in 10.0 mi Calm Calm - N/A   Overcast
7:52 PM 42.1 °F 40.2 °F 27.0 °F 55% 29.85 in 10.0 mi South 3.5 mph - N/A   Overcast
8:52 PM 42.1 °F 36.1 °F 26.1 °F 53% 29.87 in 10.0 mi West 10.4 mph - N/A   Mostly Cloudy
9:52 PM 39.9 °F 32.9 °F 28.0 °F 63% 29.91 in 10.0 mi WSW 11.5 mph - N/A   Overcast
10:52 PM 39.9 °F 32.9 °F 26.1 °F 58% 29.91 in 10.0 mi West 11.5 mph - N/A   Scattered Clouds
11:52 PM 39.0 °F 32.8 °F 26.1 °F 60% 29.93 in 10.0 mi West 9.2 mph - N/A   Clear